Year,Month,Day,Hour,Minute,Value (Times are PST for temperature in C)
2018,09,29,00,00,10.90
2018,09,29,00,01,10.90
2018,09,29,00,02,10.90
2018,09,29,00,03,10.90
2018,09,29,00,04,10.90
2018,09,29,00,05,10.90
2018,09,29,00,06,10.90
2018,09,29,00,07,10.90
2018,09,29,00,08,10.90
2018,09,29,00,09,10.80
2018,09,29,00,10,10.80
2018,09,29,00,11,10.80
2018,09,29,00,12,10.80
2018,09,29,00,13,10.80
2018,09,29,00,14,10.70
2018,09,29,00,15,10.70
2018,09,29,00,16,10.70
2018,09,29,00,17,10.70
2018,09,29,00,18,10.70
2018,09,29,00,19,10.70
2018,09,29,00,20,10.70
2018,09,29,00,21,10.70
2018,09,29,00,22,10.70
2018,09,29,00,23,10.70
2018,09,29,00,24,10.70
2018,09,29,00,25,10.70
2018,09,29,00,26,10.70
2018,09,29,00,27,10.70
2018,09,29,00,28,10.70
2018,09,29,00,29,10.70
2018,09,29,00,30,10.70
2018,09,29,00,31,10.70
2018,09,29,00,32,10.70
2018,09,29,00,33,10.70
2018,09,29,00,34,10.70
2018,09,29,00,35,10.80
2018,09,29,00,36,10.80
2018,09,29,00,37,10.80
2018,09,29,00,38,10.80
2018,09,29,00,39,10.80
2018,09,29,00,40,10.90
2018,09,29,00,41,11.00
2018,09,29,00,42,11.00
2018,09,29,00,43,11.10
2018,09,29,00,44,11.20
2018,09,29,00,45,11.30
2018,09,29,00,46,11.30
2018,09,29,00,47,11.40
2018,09,29,00,48,11.40
2018,09,29,00,49,11.40
2018,09,29,00,50,11.50
2018,09,29,00,51,11.50
2018,09,29,00,52,11.50
2018,09,29,00,53,11.40
2018,09,29,00,54,11.40
2018,09,29,00,55,11.40
2018,09,29,00,56,11.40
2018,09,29,00,57,11.40
2018,09,29,00,58,11.40
2018,09,29,00,59,11.40
2018,09,29,01,00,11.40
2018,09,29,01,01,11.40
2018,09,29,01,02,11.40
2018,09,29,01,03,11.40
2018,09,29,01,04,11.40
2018,09,29,01,05,11.30
2018,09,29,01,06,11.30
2018,09,29,01,07,11.30
2018,09,29,01,08,11.30
2018,09,29,01,09,11.30
2018,09,29,01,10,11.30
2018,09,29,01,11,11.30
2018,09,29,01,12,11.30
2018,09,29,01,13,11.30
2018,09,29,01,14,11.30
2018,09,29,01,15,11.30
2018,09,29,01,16,11.40
2018,09,29,01,17,11.40
2018,09,29,01,18,11.40
2018,09,29,01,19,11.40
2018,09,29,01,20,11.30
2018,09,29,01,21,11.30
2018,09,29,01,22,11.30
2018,09,29,01,23,11.30
2018,09,29,01,24,11.20
2018,09,29,01,25,11.20
2018,09,29,01,26,11.20
2018,09,29,01,27,11.10
2018,09,29,01,28,11.10
2018,09,29,01,29,11.10
2018,09,29,01,30,11.10
2018,09,29,01,31,11.10
2018,09,29,01,32,11.10
2018,09,29,01,33,11.10
2018,09,29,01,34,11.10
2018,09,29,01,35,11.10
2018,09,29,01,36,11.20
2018,09,29,01,37,11.20
2018,09,29,01,38,11.30
2018,09,29,01,39,11.30
2018,09,29,01,40,11.40
2018,09,29,01,41,11.40
2018,09,29,01,42,11.40
2018,09,29,01,43,11.40
2018,09,29,01,44,11.50
2018,09,29,01,45,11.50
2018,09,29,01,46,11.60
2018,09,29,01,47,11.60
2018,09,29,01,48,11.70
2018,09,29,01,49,11.80
2018,09,29,01,50,11.90
2018,09,29,01,51,12.00
2018,09,29,01,52,12.00
2018,09,29,01,53,12.10
2018,09,29,01,54,12.10
2018,09,29,01,55,12.10
2018,09,29,01,56,12.10
2018,09,29,01,57,12.20
2018,09,29,01,58,12.20
2018,09,29,01,59,12.20
2018,09,29,02,00,12.30
2018,09,29,02,01,12.30
2018,09,29,02,02,12.30
2018,09,29,02,03,12.30
2018,09,29,02,04,12.40
2018,09,29,02,05,12.40
2018,09,29,02,06,12.40
2018,09,29,02,07,12.40
2018,09,29,02,08,12.40
2018,09,29,02,09,12.40
2018,09,29,02,10,12.50
2018,09,29,02,11,12.50
2018,09,29,02,12,12.60
2018,09,29,02,13,12.60
2018,09,29,02,14,12.60
2018,09,29,02,15,12.60
2018,09,29,02,16,12.60
2018,09,29,02,17,12.60
2018,09,29,02,18,12.60
2018,09,29,02,19,12.70
2018,09,29,02,20,12.70
2018,09,29,02,21,12.70
2018,09,29,02,22,12.70
2018,09,29,02,23,12.70
2018,09,29,02,24,12.80
2018,09,29,02,25,12.80
2018,09,29,02,26,12.90
2018,09,29,02,27,12.90
2018,09,29,02,28,13.00
2018,09,29,02,29,13.10
2018,09,29,02,30,13.10
2018,09,29,02,31,13.20
2018,09,29,02,32,13.20
2018,09,29,02,33,13.30
2018,09,29,02,34,13.30
2018,09,29,02,35,13.30
2018,09,29,02,36,13.40
2018,09,29,02,37,13.40
2018,09,29,02,38,13.40
2018,09,29,02,39,13.40
2018,09,29,02,40,13.40
2018,09,29,02,41,13.50
2018,09,29,02,42,13.50
2018,09,29,02,43,13.50
2018,09,29,02,44,13.50
2018,09,29,02,45,13.50
2018,09,29,02,46,13.50
2018,09,29,02,47,13.50
2018,09,29,02,48,13.60
2018,09,29,02,49,13.60
2018,09,29,02,50,13.60
2018,09,29,02,51,13.70
2018,09,29,02,52,13.70
2018,09,29,02,53,13.70
2018,09,29,02,54,13.70
2018,09,29,02,55,13.70
2018,09,29,02,56,13.70
2018,09,29,02,57,13.70
2018,09,29,02,58,13.70
2018,09,29,02,59,13.70
2018,09,29,03,00,13.80
2018,09,29,03,01,13.80
2018,09,29,03,02,13.80
2018,09,29,03,03,13.80
2018,09,29,03,04,13.70
2018,09,29,03,05,13.70
2018,09,29,03,06,13.70
2018,09,29,03,07,13.70
2018,09,29,03,08,13.70
2018,09,29,03,09,13.70
2018,09,29,03,10,13.70
2018,09,29,03,11,13.80
2018,09,29,03,12,13.80
2018,09,29,03,13,13.80
2018,09,29,03,14,13.90
2018,09,29,03,15,13.90
2018,09,29,03,16,13.90
2018,09,29,03,17,13.90
2018,09,29,03,18,13.90
2018,09,29,03,19,13.90
2018,09,29,03,20,13.90
2018,09,29,03,21,14.00
2018,09,29,03,22,14.00
2018,09,29,03,23,14.10
2018,09,29,03,24,14.10
2018,09,29,03,25,14.10
2018,09,29,03,26,14.10
2018,09,29,03,27,14.10
2018,09,29,03,28,14.10
2018,09,29,03,29,14.10
2018,09,29,03,30,14.10
2018,09,29,03,31,14.10
2018,09,29,03,32,14.00
2018,09,29,03,33,14.00
2018,09,29,03,34,14.00
2018,09,29,03,35,13.90
2018,09,29,03,36,13.80
2018,09,29,03,37,13.80
2018,09,29,03,38,13.70
2018,09,29,03,39,13.70
2018,09,29,03,40,13.70
2018,09,29,03,41,13.70
2018,09,29,03,42,13.70
2018,09,29,03,43,13.70
2018,09,29,03,44,13.70
2018,09,29,03,45,13.70
2018,09,29,03,46,13.70
2018,09,29,03,47,13.70
2018,09,29,03,48,13.70
2018,09,29,03,49,13.70
2018,09,29,03,50,13.70
2018,09,29,03,51,13.70
2018,09,29,03,52,13.60
2018,09,29,03,53,13.60
2018,09,29,03,54,13.50
2018,09,29,03,55,13.50
2018,09,29,03,56,13.40
2018,09,29,03,57,13.40
2018,09,29,03,58,13.40
2018,09,29,03,59,13.30
2018,09,29,04,00,13.30
2018,09,29,04,01,13.30
2018,09,29,04,02,13.30
2018,09,29,04,03,13.30
2018,09,29,04,04,13.30
2018,09,29,04,05,13.30
2018,09,29,04,06,13.30
2018,09,29,04,07,13.20
2018,09,29,04,08,13.20
2018,09,29,04,09,13.20
2018,09,29,04,10,13.30
2018,09,29,04,11,13.30
2018,09,29,04,12,13.30
2018,09,29,04,13,13.30
2018,09,29,04,14,13.40
2018,09,29,04,15,13.40
2018,09,29,04,16,13.50
2018,09,29,04,17,13.50
2018,09,29,04,18,13.60
2018,09,29,04,19,13.60
2018,09,29,04,20,13.60
2018,09,29,04,21,13.60
2018,09,29,04,22,13.60
2018,09,29,04,23,13.60
2018,09,29,04,24,13.60
2018,09,29,04,25,13.70
2018,09,29,04,26,13.70
2018,09,29,04,27,13.70
2018,09,29,04,28,13.70
2018,09,29,04,29,13.70
2018,09,29,04,30,13.70
2018,09,29,04,31,13.80
2018,09,29,04,32,13.80
2018,09,29,04,33,13.80
2018,09,29,04,34,13.90
2018,09,29,04,35,14.00
2018,09,29,04,36,14.00
2018,09,29,04,37,14.20
2018,09,29,04,38,14.30
2018,09,29,04,39,14.30
2018,09,29,04,40,14.40
2018,09,29,04,41,14.40
2018,09,29,04,42,14.50
2018,09,29,04,43,14.50
2018,09,29,04,44,14.60
2018,09,29,04,45,14.60
2018,09,29,04,46,14.60
2018,09,29,04,47,14.70
2018,09,29,04,48,14.70
2018,09,29,04,49,14.70
2018,09,29,04,50,14.80
2018,09,29,04,51,14.80
2018,09,29,04,52,14.80
2018,09,29,04,53,14.80
2018,09,29,04,54,14.80
2018,09,29,04,55,14.80
2018,09,29,04,56,14.80
2018,09,29,04,57,14.80
2018,09,29,04,58,14.90
2018,09,29,04,59,14.90
2018,09,29,05,00,14.90
2018,09,29,05,01,14.90
2018,09,29,05,02,14.90
2018,09,29,05,03,14.90
2018,09,29,05,04,14.90
2018,09,29,05,05,14.90
2018,09,29,05,06,14.90
2018,09,29,05,07,14.90
2018,09,29,05,08,14.90
2018,09,29,05,09,14.90
2018,09,29,05,10,14.90
2018,09,29,05,11,14.90
2018,09,29,05,12,14.90
2018,09,29,05,13,14.90
2018,09,29,05,14,14.90
2018,09,29,05,15,14.90
2018,09,29,05,16,14.90
2018,09,29,05,17,14.90
2018,09,29,05,18,14.90
2018,09,29,05,19,15.00
2018,09,29,05,20,15.00
2018,09,29,05,21,15.00
2018,09,29,05,22,15.00
2018,09,29,05,23,15.00
2018,09,29,05,24,15.00
2018,09,29,05,25,15.00
2018,09,29,05,26,15.00
2018,09,29,05,27,15.00
2018,09,29,05,28,15.00
2018,09,29,05,29,15.10
2018,09,29,05,30,15.10
2018,09,29,05,31,15.10
2018,09,29,05,32,15.10
2018,09,29,05,33,15.10
2018,09,29,05,34,15.10
2018,09,29,05,35,15.10
2018,09,29,05,36,15.10
2018,09,29,05,37,15.20
2018,09,29,05,38,15.20
2018,09,29,05,39,15.10
2018,09,29,05,40,15.20
2018,09,29,05,41,15.20
2018,09,29,05,42,15.20
2018,09,29,05,43,15.20
2018,09,29,05,44,15.20
2018,09,29,05,45,15.20
2018,09,29,05,46,15.20
2018,09,29,05,47,15.20
2018,09,29,05,48,15.20
2018,09,29,05,49,15.20
2018,09,29,05,50,15.20
2018,09,29,05,51,15.20
2018,09,29,05,52,15.20
2018,09,29,05,53,15.20
2018,09,29,05,54,15.20
2018,09,29,05,55,15.20
2018,09,29,05,56,15.20
2018,09,29,05,57,15.20
2018,09,29,05,58,15.10
2018,09,29,05,59,15.10
2018,09,29,06,00,15.10
2018,09,29,06,01,15.10
2018,09,29,06,02,15.10
2018,09,29,06,03,15.10
2018,09,29,06,04,15.10
2018,09,29,06,05,15.10
2018,09,29,06,06,15.10
2018,09,29,06,07,15.00
2018,09,29,06,08,15.00
2018,09,29,06,09,15.00
2018,09,29,06,10,15.00
2018,09,29,06,11,15.00
2018,09,29,06,12,15.00
2018,09,29,06,13,15.00
2018,09,29,06,14,15.00
2018,09,29,06,15,15.00
2018,09,29,06,16,15.00
2018,09,29,06,17,15.00
2018,09,29,06,18,15.00
2018,09,29,06,19,15.00
2018,09,29,06,20,15.10
2018,09,29,06,21,15.10
2018,09,29,06,22,15.10
2018,09,29,06,23,15.10
2018,09,29,06,24,15.10
2018,09,29,06,25,15.10
2018,09,29,06,26,15.10
2018,09,29,06,27,15.10
2018,09,29,06,28,15.10
2018,09,29,06,29,15.20
2018,09,29,06,30,15.20
2018,09,29,06,31,15.20
2018,09,29,06,32,15.20
2018,09,29,06,33,15.20
2018,09,29,06,34,15.20
2018,09,29,06,35,15.20
2018,09,29,06,36,15.20
2018,09,29,06,37,15.20
2018,09,29,06,38,15.20
2018,09,29,06,39,15.20
2018,09,29,06,40,15.20
2018,09,29,06,41,15.20
2018,09,29,06,42,15.30
2018,09,29,06,43,15.30
2018,09,29,06,44,15.30
2018,09,29,06,45,15.30
2018,09,29,06,46,15.30
2018,09,29,06,47,15.30
2018,09,29,06,48,15.30
2018,09,29,06,49,15.30
2018,09,29,06,50,15.30
2018,09,29,06,51,15.30
2018,09,29,06,52,15.30
2018,09,29,06,53,15.30
2018,09,29,06,54,15.30
2018,09,29,06,55,15.30
2018,09,29,06,56,15.30
2018,09,29,06,57,15.30
2018,09,29,06,58,15.30
2018,09,29,06,59,15.30
2018,09,29,07,00,15.30
2018,09,29,07,01,15.30
2018,09,29,07,02,15.30
2018,09,29,07,03,15.40
2018,09,29,07,04,15.40
2018,09,29,07,05,15.40
2018,09,29,07,06,15.40
2018,09,29,07,07,15.40
2018,09,29,07,08,15.40
2018,09,29,07,09,15.40
2018,09,29,07,10,15.40
2018,09,29,07,11,15.50
2018,09,29,07,12,15.40
2018,09,29,07,13,15.40
2018,09,29,07,14,15.40
2018,09,29,07,15,15.50
2018,09,29,07,16,15.50
2018,09,29,07,17,15.50
2018,09,29,07,18,15.50
2018,09,29,07,19,15.50
2018,09,29,07,20,15.50
2018,09,29,07,21,15.50
2018,09,29,07,22,15.50
2018,09,29,07,23,15.50
2018,09,29,07,24,15.50
2018,09,29,07,25,15.60
2018,09,29,07,26,15.60
2018,09,29,07,27,15.60
2018,09,29,07,28,15.60
2018,09,29,07,29,15.60
2018,09,29,07,30,15.60
2018,09,29,07,31,15.60
2018,09,29,07,32,15.60
2018,09,29,07,33,15.70
2018,09,29,07,34,15.70
2018,09,29,07,35,15.70
2018,09,29,07,36,15.70
2018,09,29,07,37,15.70
2018,09,29,07,38,15.70
2018,09,29,07,39,15.80
2018,09,29,07,40,15.80
2018,09,29,07,41,15.80
2018,09,29,07,42,15.80
2018,09,29,07,43,15.80
2018,09,29,07,44,15.90
2018,09,29,07,45,15.90
2018,09,29,07,46,16.00
2018,09,29,07,47,16.00
2018,09,29,07,48,16.00
2018,09,29,07,49,16.00
2018,09,29,07,50,16.00
2018,09,29,07,51,16.10
2018,09,29,07,52,16.10
2018,09,29,07,53,16.10
2018,09,29,07,54,16.10
2018,09,29,07,55,16.10
2018,09,29,07,56,16.10
2018,09,29,07,57,16.20
2018,09,29,07,58,16.20
2018,09,29,07,59,16.20
2018,09,29,08,00,16.20
2018,09,29,08,01,16.20
2018,09,29,08,02,16.20
2018,09,29,08,03,16.20
2018,09,29,08,04,16.20
2018,09,29,08,05,16.20
2018,09,29,08,06,16.20
2018,09,29,08,07,16.20
2018,09,29,08,08,16.20
2018,09,29,08,09,16.30
2018,09,29,08,10,16.30
2018,09,29,08,11,16.30
2018,09,29,08,12,16.30
2018,09,29,08,13,16.30
2018,09,29,08,14,16.30
2018,09,29,08,15,16.30
2018,09,29,08,16,16.30
2018,09,29,08,17,16.30
2018,09,29,08,18,16.30
2018,09,29,08,19,16.30
2018,09,29,08,20,16.30
2018,09,29,08,21,16.30
2018,09,29,08,22,16.30
2018,09,29,08,23,16.30
2018,09,29,08,24,16.30
2018,09,29,08,25,16.30
2018,09,29,08,26,16.30
2018,09,29,08,27,16.30
2018,09,29,08,28,16.30
2018,09,29,08,29,16.40
2018,09,29,08,30,16.40
2018,09,29,08,31,16.50
2018,09,29,08,32,16.50
2018,09,29,08,33,16.50
2018,09,29,08,34,16.60
2018,09,29,08,35,16.70
2018,09,29,08,36,16.70
2018,09,29,08,37,16.70
2018,09,29,08,38,16.80
2018,09,29,08,39,16.80
2018,09,29,08,40,16.80
2018,09,29,08,41,16.90
2018,09,29,08,42,16.90
2018,09,29,08,43,17.00
2018,09,29,08,44,17.00
2018,09,29,08,45,17.10
2018,09,29,08,46,17.10
2018,09,29,08,47,17.20
2018,09,29,08,48,17.20
2018,09,29,08,49,17.20
2018,09,29,08,50,17.30
2018,09,29,08,51,17.30
2018,09,29,08,52,17.30
2018,09,29,08,53,17.30
2018,09,29,08,54,17.30
2018,09,29,08,55,17.30
2018,09,29,08,56,17.30
2018,09,29,08,57,17.30
2018,09,29,08,58,17.30
2018,09,29,08,59,17.30
2018,09,29,09,00,17.30
2018,09,29,09,01,17.30
2018,09,29,09,02,17.30
2018,09,29,09,03,17.30
2018,09,29,09,04,17.30
2018,09,29,09,05,17.30
2018,09,29,09,06,17.30
2018,09,29,09,07,17.30
2018,09,29,09,08,17.30
2018,09,29,09,09,17.30
2018,09,29,09,10,17.30
2018,09,29,09,11,17.30
2018,09,29,09,12,17.30
2018,09,29,09,13,17.30
2018,09,29,09,14,17.30
2018,09,29,09,15,17.30
2018,09,29,09,16,17.30
2018,09,29,09,17,17.30
2018,09,29,09,18,17.40
2018,09,29,09,19,17.40
2018,09,29,09,20,17.40
2018,09,29,09,21,17.40
2018,09,29,09,22,17.40
2018,09,29,09,23,17.50
2018,09,29,09,24,17.50
2018,09,29,09,25,17.50
2018,09,29,09,26,17.60
2018,09,29,09,27,17.60
2018,09,29,09,28,17.60
2018,09,29,09,29,17.60
2018,09,29,09,30,17.70
2018,09,29,09,31,17.70
2018,09,29,09,32,17.70
2018,09,29,09,33,17.70
2018,09,29,09,34,17.70
2018,09,29,09,35,17.80
2018,09,29,09,36,17.80
2018,09,29,09,37,17.80
2018,09,29,09,38,17.80
2018,09,29,09,39,17.80
2018,09,29,09,40,17.80
2018,09,29,09,41,17.80
2018,09,29,09,42,17.90
2018,09,29,09,43,17.90
2018,09,29,09,44,17.90
2018,09,29,09,45,17.90
2018,09,29,09,46,17.90
2018,09,29,09,47,17.90
2018,09,29,09,48,18.00
2018,09,29,09,49,18.00
2018,09,29,09,50,18.00
2018,09,29,09,51,18.00
2018,09,29,09,52,18.00
2018,09,29,09,53,18.00
2018,09,29,09,54,18.00
2018,09,29,09,55,18.10
2018,09,29,09,56,18.10
2018,09,29,09,57,18.10
2018,09,29,09,58,18.10
2018,09,29,09,59,18.10
2018,09,29,10,00,18.10
2018,09,29,10,01,18.10
2018,09,29,10,02,18.10
2018,09,29,10,03,18.20
2018,09,29,10,04,18.20
2018,09,29,10,05,18.20
2018,09,29,10,06,18.20
2018,09,29,10,07,18.20
2018,09,29,10,08,18.20
2018,09,29,10,09,18.30
2018,09,29,10,10,18.30
2018,09,29,10,11,18.30
2018,09,29,10,12,18.30
2018,09,29,10,13,18.40
2018,09,29,10,14,18.40
2018,09,29,10,15,18.40
2018,09,29,10,16,18.40
2018,09,29,10,17,18.40
2018,09,29,10,18,18.50
2018,09,29,10,19,18.50
2018,09,29,10,20,18.50
2018,09,29,10,21,18.60
2018,09,29,10,22,18.60
2018,09,29,10,23,18.60
2018,09,29,10,24,18.70
2018,09,29,10,25,18.70
2018,09,29,10,26,18.70
2018,09,29,10,27,18.70
2018,09,29,10,28,18.70
2018,09,29,10,29,18.80
2018,09,29,10,30,18.80
2018,09,29,10,31,18.80
2018,09,29,10,32,18.80
2018,09,29,10,33,18.80
2018,09,29,10,34,18.90
2018,09,29,10,35,18.90
2018,09,29,10,36,18.90
2018,09,29,10,37,18.90
2018,09,29,10,38,18.90
2018,09,29,10,39,18.90
2018,09,29,10,40,19.00
2018,09,29,10,41,19.00
2018,09,29,10,42,19.00
2018,09,29,10,43,19.00
2018,09,29,10,44,19.00
2018,09,29,10,45,19.00
2018,09,29,10,46,19.00
2018,09,29,10,47,19.00
2018,09,29,10,48,19.00
2018,09,29,10,49,19.00
2018,09,29,10,50,19.00
2018,09,29,10,51,19.10
2018,09,29,10,52,19.10
2018,09,29,10,53,19.10
2018,09,29,10,54,19.10
2018,09,29,10,55,19.10
2018,09,29,10,56,19.10
2018,09,29,10,57,19.10
2018,09,29,10,58,19.20
2018,09,29,10,59,19.20
2018,09,29,11,00,19.20
2018,09,29,11,01,19.20
2018,09,29,11,02,19.30
2018,09,29,11,03,19.30
2018,09,29,11,04,19.30
2018,09,29,11,05,19.30
2018,09,29,11,06,19.40
2018,09,29,11,07,19.40
2018,09,29,11,08,19.40
2018,09,29,11,09,19.40
2018,09,29,11,10,19.40
2018,09,29,11,11,19.40
2018,09,29,11,12,19.40
2018,09,29,11,13,19.40
2018,09,29,11,14,19.30
2018,09,29,11,15,19.30
2018,09,29,11,16,19.30
2018,09,29,11,17,19.30
2018,09,29,11,18,19.30
2018,09,29,11,19,19.30
2018,09,29,11,20,19.30
2018,09,29,11,21,19.30
2018,09,29,11,22,19.30
2018,09,29,11,23,19.30
2018,09,29,11,24,19.40
2018,09,29,11,25,19.40
2018,09,29,11,26,19.40
2018,09,29,11,27,19.40
2018,09,29,11,28,19.40
2018,09,29,11,29,19.40
2018,09,29,11,30,19.30
2018,09,29,11,31,19.30
2018,09,29,11,32,19.30
2018,09,29,11,33,19.30
2018,09,29,11,34,19.30
2018,09,29,11,35,19.30
2018,09,29,11,36,19.30
2018,09,29,11,37,19.30
2018,09,29,11,38,19.30
2018,09,29,11,39,19.30
2018,09,29,11,40,19.30
2018,09,29,11,41,19.30
2018,09,29,11,42,19.30
2018,09,29,11,43,19.20
2018,09,29,11,44,19.20
2018,09,29,11,45,19.20
2018,09,29,11,46,19.20
2018,09,29,11,47,19.20
2018,09,29,11,48,19.20
2018,09,29,11,49,19.20
2018,09,29,11,50,19.20
2018,09,29,11,51,19.20
2018,09,29,11,52,19.20
2018,09,29,11,53,19.20
2018,09,29,11,54,19.20
2018,09,29,11,55,19.20
2018,09,29,11,56,19.30
2018,09,29,11,57,19.30
2018,09,29,11,58,19.30
2018,09,29,11,59,19.40
2018,09,29,12,00,19.40
2018,09,29,12,01,19.40
2018,09,29,12,02,19.40
2018,09,29,12,03,19.50
2018,09,29,12,04,19.50
2018,09,29,12,05,19.50
2018,09,29,12,06,19.40
2018,09,29,12,07,19.40
2018,09,29,12,08,19.40
2018,09,29,12,09,19.40
2018,09,29,12,10,19.30
2018,09,29,12,11,19.30
2018,09,29,12,12,19.20
2018,09,29,12,13,19.20
2018,09,29,12,14,19.20
2018,09,29,12,15,19.20
2018,09,29,12,16,19.20
2018,09,29,12,17,19.20
2018,09,29,12,18,19.20
2018,09,29,12,19,19.20
2018,09,29,12,20,19.20
2018,09,29,12,21,19.20
2018,09,29,12,22,19.10
2018,09,29,12,23,19.10
2018,09,29,12,24,19.10
2018,09,29,12,25,19.10
2018,09,29,12,26,19.10
2018,09,29,12,27,19.10
2018,09,29,12,28,19.10
2018,09,29,12,29,19.10
2018,09,29,12,30,19.10
2018,09,29,12,31,19.10
2018,09,29,12,32,19.10
2018,09,29,12,33,19.10
2018,09,29,12,34,19.10
2018,09,29,12,35,19.10
2018,09,29,12,36,19.10
2018,09,29,12,37,19.10
2018,09,29,12,38,19.20
2018,09,29,12,39,19.20
2018,09,29,12,40,19.20
2018,09,29,12,41,19.20
2018,09,29,12,42,19.30
2018,09,29,12,43,19.30
2018,09,29,12,44,19.30
2018,09,29,12,45,19.30
2018,09,29,12,46,19.30
2018,09,29,12,47,19.30
2018,09,29,12,48,19.30
2018,09,29,12,49,19.30
2018,09,29,12,50,19.30
2018,09,29,12,51,19.20
2018,09,29,12,52,19.20
2018,09,29,12,53,19.20
2018,09,29,12,54,19.20
2018,09,29,12,55,19.20
2018,09,29,12,56,19.20
2018,09,29,12,57,19.10
2018,09,29,12,58,19.10
2018,09,29,12,59,19.10
2018,09,29,13,00,19.10
2018,09,29,13,01,19.10
2018,09,29,13,02,19.10
2018,09,29,13,03,19.10
2018,09,29,13,04,19.10
2018,09,29,13,05,19.10
2018,09,29,13,06,19.00
2018,09,29,13,07,19.00
2018,09,29,13,08,19.00
2018,09,29,13,09,19.00
2018,09,29,13,10,18.90
2018,09,29,13,11,18.90
2018,09,29,13,12,18.90
2018,09,29,13,13,18.90
2018,09,29,13,14,18.90
2018,09,29,13,15,18.80
2018,09,29,13,16,18.80
2018,09,29,13,17,18.80
2018,09,29,13,18,18.80
2018,09,29,13,19,18.80
2018,09,29,13,20,18.70
2018,09,29,13,21,18.70
2018,09,29,13,22,18.70
2018,09,29,13,23,18.70
2018,09,29,13,24,18.60
2018,09,29,13,25,18.60
2018,09,29,13,26,18.60
2018,09,29,13,27,18.60
2018,09,29,13,28,18.50
2018,09,29,13,29,18.50
2018,09,29,13,30,18.40
2018,09,29,13,31,18.40
2018,09,29,13,32,18.40
2018,09,29,13,33,18.30
2018,09,29,13,34,18.30
2018,09,29,13,35,18.30
2018,09,29,13,36,18.30
2018,09,29,13,37,18.30
2018,09,29,13,38,18.30
2018,09,29,13,39,18.30
2018,09,29,13,40,18.30
2018,09,29,13,41,18.30
2018,09,29,13,42,18.30
2018,09,29,13,43,18.30
2018,09,29,13,44,18.20
2018,09,29,13,45,18.20
2018,09,29,13,46,18.20
2018,09,29,13,47,18.20
2018,09,29,13,48,18.20
2018,09,29,13,49,18.20
2018,09,29,13,50,18.20
2018,09,29,13,51,18.20
2018,09,29,13,52,18.20
2018,09,29,13,53,18.20
2018,09,29,13,54,18.20
2018,09,29,13,55,18.20
2018,09,29,13,56,18.10
2018,09,29,13,57,18.10
2018,09,29,13,58,18.10
2018,09,29,13,59,18.10
2018,09,29,14,00,18.10
2018,09,29,14,01,18.10
2018,09,29,14,02,18.10
2018,09,29,14,03,18.10
2018,09,29,14,04,18.10
2018,09,29,14,05,18.10
2018,09,29,14,06,18.10
2018,09,29,14,07,18.10
2018,09,29,14,08,18.10
2018,09,29,14,09,18.10
2018,09,29,14,10,18.10
2018,09,29,14,11,18.10
2018,09,29,14,12,18.10
2018,09,29,14,13,18.00
2018,09,29,14,14,18.00
2018,09,29,14,15,18.00
2018,09,29,14,16,18.00
2018,09,29,14,17,18.00
2018,09,29,14,18,18.00
2018,09,29,14,19,18.00
2018,09,29,14,20,18.00
2018,09,29,14,21,18.10
2018,09,29,14,22,18.10
2018,09,29,14,23,18.10
2018,09,29,14,24,18.10
2018,09,29,14,25,18.10
2018,09,29,14,26,18.10
2018,09,29,14,27,18.10
2018,09,29,14,28,18.10
2018,09,29,14,29,18.10
2018,09,29,14,30,18.10
2018,09,29,14,31,18.10
2018,09,29,14,32,18.10
2018,09,29,14,33,18.10
2018,09,29,14,34,18.10
2018,09,29,14,35,18.10
2018,09,29,14,36,18.10
2018,09,29,14,37,18.10
2018,09,29,14,38,18.10
2018,09,29,14,39,18.20
2018,09,29,14,40,18.20
2018,09,29,14,41,18.20
2018,09,29,14,42,18.20
2018,09,29,14,43,18.20
2018,09,29,14,44,18.20
2018,09,29,14,45,18.20
2018,09,29,14,46,18.30
2018,09,29,14,47,18.30
2018,09,29,14,48,18.30
2018,09,29,14,49,18.30
2018,09,29,14,50,18.30
2018,09,29,14,51,18.30
2018,09,29,14,52,18.30
2018,09,29,14,53,18.30
2018,09,29,14,54,18.30
2018,09,29,14,55,18.30
2018,09,29,14,56,18.30
2018,09,29,14,57,18.30
2018,09,29,14,58,18.30
2018,09,29,14,59,18.30
2018,09,29,15,00,18.30
2018,09,29,15,01,18.30
2018,09,29,15,02,18.30
2018,09,29,15,03,18.30
2018,09,29,15,04,18.30
2018,09,29,15,05,18.30
2018,09,29,15,06,18.30
2018,09,29,15,07,18.30
2018,09,29,15,08,18.30
2018,09,29,15,09,18.30
2018,09,29,15,10,18.30
2018,09,29,15,11,18.30
2018,09,29,15,12,18.30
2018,09,29,15,13,18.30
2018,09,29,15,14,18.30
2018,09,29,15,15,18.30
2018,09,29,15,16,18.30
2018,09,29,15,17,18.30
2018,09,29,15,18,18.30
2018,09,29,15,19,18.30
2018,09,29,15,20,18.30
2018,09,29,15,21,18.30
2018,09,29,15,22,18.30
2018,09,29,15,23,18.30
2018,09,29,15,24,18.30
2018,09,29,15,25,18.30
2018,09,29,15,26,18.30
2018,09,29,15,27,18.30
2018,09,29,15,28,18.30
2018,09,29,15,29,18.30
2018,09,29,15,30,18.30
2018,09,29,15,31,18.30
2018,09,29,15,32,18.30
2018,09,29,15,33,18.30
2018,09,29,15,34,18.30
2018,09,29,15,35,18.30
2018,09,29,15,36,18.30
2018,09,29,15,37,18.30
2018,09,29,15,38,18.30
2018,09,29,15,39,18.30
2018,09,29,15,40,18.30
2018,09,29,15,41,18.30
2018,09,29,15,42,18.30
2018,09,29,15,43,18.30
2018,09,29,15,44,18.30
2018,09,29,15,45,18.30
2018,09,29,15,46,18.30
2018,09,29,15,47,18.20
2018,09,29,15,48,18.20
2018,09,29,15,49,18.20
2018,09,29,15,50,18.20
2018,09,29,15,51,18.20
2018,09,29,15,52,18.20
2018,09,29,15,53,18.20
2018,09,29,15,54,18.20
2018,09,29,15,55,18.20
2018,09,29,15,56,18.20
2018,09,29,15,57,18.20
2018,09,29,15,58,18.20
2018,09,29,15,59,18.20
2018,09,29,16,00,18.20
2018,09,29,16,01,18.20
2018,09,29,16,02,18.20
2018,09,29,16,03,18.20
2018,09,29,16,04,18.20
2018,09,29,16,05,18.20
2018,09,29,16,06,18.20
2018,09,29,16,07,18.20
2018,09,29,16,08,18.20
2018,09,29,16,09,18.20
2018,09,29,16,10,18.20
2018,09,29,16,11,18.20
2018,09,29,16,12,18.20
2018,09,29,16,13,18.20
2018,09,29,16,14,18.20
2018,09,29,16,15,18.20
2018,09,29,16,16,18.20
2018,09,29,16,17,18.20
2018,09,29,16,18,18.10
2018,09,29,16,19,18.10
2018,09,29,16,20,18.20
2018,09,29,16,21,18.10
2018,09,29,16,22,18.10
2018,09,29,16,23,18.10
2018,09,29,16,24,18.10
2018,09,29,16,25,18.10
2018,09,29,16,26,18.10
2018,09,29,16,27,18.10
2018,09,29,16,28,18.10
2018,09,29,16,29,18.10
2018,09,29,16,30,18.10
2018,09,29,16,31,18.00
2018,09,29,16,32,18.00
2018,09,29,16,33,17.90
2018,09,29,16,34,17.90
2018,09,29,16,35,17.90
2018,09,29,16,36,17.90
2018,09,29,16,37,17.90
2018,09,29,16,38,17.90
2018,09,29,16,39,17.80
2018,09,29,16,40,17.80
2018,09,29,16,41,17.80
2018,09,29,16,42,17.80
2018,09,29,16,43,17.80
2018,09,29,16,44,17.80
2018,09,29,16,45,17.80
2018,09,29,16,46,17.80
2018,09,29,16,47,17.80
2018,09,29,16,48,17.70
2018,09,29,16,49,17.70
2018,09,29,16,50,17.70
2018,09,29,16,51,17.70
2018,09,29,16,52,17.70
2018,09,29,16,53,17.70
2018,09,29,16,54,17.70
2018,09,29,16,55,17.70
2018,09,29,16,56,17.70
2018,09,29,16,57,17.70
2018,09,29,16,58,17.60
2018,09,29,16,59,17.60
2018,09,29,17,00,17.60
2018,09,29,17,01,17.60
2018,09,29,17,02,17.60
2018,09,29,17,03,17.60
2018,09,29,17,04,17.60
2018,09,29,17,05,17.50
2018,09,29,17,06,17.50
2018,09,29,17,07,17.50
2018,09,29,17,08,17.50
2018,09,29,17,09,17.50
2018,09,29,17,10,17.50
2018,09,29,17,11,17.50
2018,09,29,17,12,17.40
2018,09,29,17,13,17.40
2018,09,29,17,14,17.40
2018,09,29,17,15,17.40
2018,09,29,17,16,17.40
2018,09,29,17,17,17.40
2018,09,29,17,18,17.40
2018,09,29,17,19,17.30